GW7428 Weather Reports


Display with metric or nautical units.
time (UTC)temp
F
wind
direction
speed
MPH
gust
MPH
rain 1hr
in
rain 24hr
in
rain mn
in
humidity
%
barometer
mb
20260906230037 64 306 3.0 7.0 0.00 0.05 0.02 100 1015.9
20260906224539 64 257 4.0 8.0 0.00 0.05 0.02 100 1016.0
20260906223054 63 301 6.0 8.0 0.00 0.05 0.02 100 1016.2
20260906221536 63 261 3.0 6.0 0.00 0.05 0.02 100 1016.1
20260906220040 64 53 5.0 10.0 0.00 0.05 0.02 100 1016.1
20260906214544 64 74 2.0 7.0 0.00 0.05 0.02 100 1016.1
20260906213035 64 60 5.0 10.0 0.00 0.05 0.02 100 1016.1
20260906211545 64 43 7.0 12.0 0.00 0.05 0.02 100 1016.1
20260906210059 64 54 8.0 13.0 0.00 0.05 0.02 100 1015.9
20260906204544 64 37 11.0 14.0 0.00 0.05 0.02 100 1016.0
20260906203040 63 39 11.0 16.0 0.00 0.05 0.02 100 1016.0
20260906201547 63 47 11.0 16.0 0.00 0.05 0.02 100 1016.2
20260906200040 63 42 13.0 16.0 0.00 0.05 0.02 100 1016.4
20260906194536 63 34 9.0 14.0 0.00 0.05 0.02 100 1016.4
20260906193036 63 37 10.0 17.0 0.00 0.05 0.02 100 1016.3
20260906191548 64 46 13.0 19.0 0.00 0.05 0.02 4 1016.3
20260906190038 64 37 15.0 23.0 0.00 0.05 0.02 13 1016.3
20260906184536 63 47 16.0 20.0 0.00 0.05 0.02 15 1016.1
20260906183037 62 29 11.0 17.0 0.00 0.05 0.02 100 1016.5
20260906181538 60 28 11.0 15.0 0.01 0.05 0.02 100 1016.4
20260906180057 59 328 6.0 9.0 0.01 0.05 0.02 100 1017.2
20260906174550 58 323 3.0 11.0 0.01 0.05 0.02 100 1017.5
20260906173036 58 281 2.0 4.0 0.01 0.05 0.02 100 1018.2
20260906171537 59 240 5.0 8.0 0.00 0.04 0.01 100 1018.5
20260906170039 59 40 4.0 9.0 0.00 0.04 0.01 100 1018.4
20260906164537 59 34 7.0 9.0 0.00 0.04 0.01 100 1018.4
20260906163038 59 78 2.0 3.0 0.00 0.04 0.01 100 1018.4
20260906161538 58 37 2.0 4.0 0.01 0.04 0.01 100 1018.2
20260906160039 56 343 1.0 5.0 0.01 0.04 0.01 100 1018.3
20260906154539 56 359 6.0 11.0 0.01 0.04 0.01 100 1018.7
20260906153044 56 338 7.0 14.0 0.01 0.04 0.01 100 1018.9
20260906151548 55 331 12.0 19.0 0.00 0.03 0.00 100 1019.0
20260906150037 55 301 11.0 17.0 0.00 0.03 0.00 100 1018.8
20260906144541 55 302 14.0 21.0 0.00 0.04 0.00 100 1019.3
20260906143046 59 290 7.0 13.0 0.00 0.04 0.00 100 1019.5
20260906141538 59 13 10.0 15.0 0.00 0.04 0.00 100 1018.7
20260906140036 59 35 8.0 11.0 0.00 0.04 0.00 100 1018.8
20260906134549 59 342 7.0 10.0 0.00 0.07 0.00 100 1018.7
20260906133039 59 345 7.0 14.0 0.00 0.07 0.00 100 1018.5
20260906131539 58 18 16.0 26.0 0.00 0.07 0.00 100 1018.4
20260906130035 58 17 5.0 10.0 0.00 0.07 0.00 100 1018.7
20260906124533 58 345 7.0 14.0 0.00 0.07 0.00 100 1019.0
20260906123052 58 36 11.0 15.0 0.00 0.07 0.00 100 1018.5
20260906121541 57 26 11.0 14.0 0.00 0.07 0.00 100 1018.5
20260906120035 57 32 6.0 10.0 0.00 0.07 0.00 100 1018.8
20260906114536 57 20 7.0 11.0 0.00 0.07 0.00 100 1019.1
20260906113043 57 16 8.0 14.0 0.00 0.07 0.00 100 1018.9
20260906111538 57 11 9.0 14.0 0.00 0.07 0.00 100 1019.0
20260906110035 57 16 10.0 16.0 0.00 0.07 0.00 100 1018.9
20260906104536 57 32 8.0 13.0 0.00 0.07 0.00 100 1019.0
20260906103047 57 22 7.0 12.0 0.00 0.07 0.00 100 1019.1
20260906101533 58 18 11.0 16.0 0.00 0.07 0.00 100 1019.1
20260906100038 58 23 11.0 17.0 0.00 0.07 0.00 100 1019.3
20260906094536 58 28 11.0 20.0 0.00 0.07 0.00 100 1019.1
20260906093039 58 15 11.0 19.0 0.00 0.07 0.00 100 1019.2
20260906091533 58 5 10.0 18.0 0.00 0.07 0.00 100 1019.5
20260906090056 59 332 11.0 21.0 0.00 0.07 0.00 100 1019.9
20260906084538 57 347 12.0 20.0 0.00 0.07 0.00 100 1020.2
20260906083038 58 307 8.0 17.0 0.00 0.07 0.00 100 1020.2
20260906081534 58 29 12.0 16.0 0.00 0.07 0.00 100 1019.8
20260906080038 58 37 9.0 16.0 0.00 0.07 0.00 100 1019.6
20260906074540 58 13 10.0 15.0 0.00 0.07 0.00 100 1019.6
20260906073040 58 336 7.0 17.0 0.00 0.07 0.00 100 1019.8
20260906071536 59 18 10.0 18.0 0.00 0.07 0.00 100 1019.8
20260906070041 59 25 12.0 16.0 0.00 0.07 0.00 100 1020.0
20260906064535 59 345 10.0 18.0 0.00 0.07 0.00 100 1020.6
20260906063045 58 21 10.0 19.0 0.00 0.07 0.00 100 1020.5
20260906061538 58 39 10.0 18.0 0.00 0.07 0.00 100 1020.3
20260906060039 57 27 11.0 16.0 0.00 0.07 0.00 100 1020.4
20260906054537 57 32 10.0 15.0 0.00 0.07 0.07 100 1020.5
20260906053037 56 338 10.0 14.0 0.00 0.07 0.07 100 1020.2
20260906051552 57 8 11.0 17.0 0.00 0.07 0.07 100 1020.3
20260906050041 57 32 13.0 19.0 0.00 0.07 0.07 100 1020.1
20260906044541 58 18 10.0 16.0 0.00 0.07 0.07 100 1021.0
20260906043047 57 17 12.0 19.0 0.01 0.07 0.07 100 1020.0
20260906041536 57 345 13.0 18.0 0.03 0.07 0.07 100 1019.5
20260906040038 58 25 14.0 19.0 0.03 0.07 0.07 100 1019.6
20260906034540 58 33 13.0 18.0 0.03 0.07 0.07 100 1019.9
20260906033037 60 1 8.0 16.0 0.02 0.06 0.06 100 1020.6
20260906031539 61 326 11.0 17.0 0.00 0.04 0.04 30 1021.2
20260906030034 61 5 14.0 20.0 0.00 0.04 0.04 30 1019.2
20260906024534 60 19 14.0 23.0 0.00 0.04 0.04 31 1018.7
20260906023037 61 18 12.0 23.0 0.00 0.04 0.04 34 1018.4
20260906021535 62 30 15.0 25.0 0.00 0.04 0.04 40 1018.4
20260906020039 63 13 12.0 18.0 0.00 0.04 0.04 47 1018.3
20260906014535 64 47 12.0 17.0 0.00 0.04 0.04 51 1018.2
20260906013055 65 29 11.0 15.0 0.00 0.04 0.04 52 1018.2
20260906011545 66 32 11.0 15.0 0.00 0.04 0.04 53 1018.2
20260906010038 66 32 12.0 17.0 0.00 0.04 0.04 52 1018.3
20260906004534 67 29 13.0 18.0 0.00 0.04 0.04 52 1018.4
20260906003041 68 32 14.0 20.0 0.00 0.04 0.04 52 1018.5
20260906001540 69 33 16.0 21.0 0.00 0.04 0.04 51 1018.3
20260906000037 69 42 14.0 20.0 0.00 0.04 0.04 50 1018.3
20260905234535 69 32 11.0 15.0 0.00 0.04 0.04 51 1018.7
20260905233043 70 46 9.0 14.0 0.00 0.04 0.04 49 1018.6
20260905231538 71 46 8.0 14.0 0.00 0.04 0.04 48 1018.7